Regional Weather Roundup
Issued by NWS State College, PA

Home | Current Version | Previous Version | Graphics & Text | Print | Product List | Glossary On
Versions: 1 2 3 4 5 6 7 8 9 10 11 12 13 14 15 16 17 18 19 20 21 22 23 24 25 26 27 28 29 30 31 32 33 34 35 36 37 38 39 40 41 42 43 44 45 46 47 48 49 50
000
ASUS41 KCTP 300910
RWRCTP

REGIONAL WEATHER ROUNDUP
NATIONAL WEATHER SERVICE STATE COLLEGE PA
500 AM EDT WED JUL 30 2014

Note: "fair" indicates few or no clouds below 12,000 feet with no
significant weather and/or obstructions to visibility.

* = STATION THAT DOES NOT REPORT PRECIPITATION /E.G. RAIN...SNOW...ETC/
    THUNDER OR FOG.

PAZ002>004-007>009-013>016-020>023-029>032-301000-
WESTERN PENNSYLVANIA

CITY           SKY/WX    TMP DP  RH WIND       PRES   REMARKS
ERIE           CLOUDY    63  52  67 S13       29.95F
MEADVILLE      CLOUDY    56  51  84 VRB5      30.00R
FRANKLIN*      CLOUDY    52  48  87 S7        30.03R
NEW CASTLE       N/A     56  51  83 CALM      30.03R
BEAVER COUNTY  NOT AVBL
BUTLER*        CLOUDY    54  48  82 S5        30.05R
PITTSBURGH INT PTCLDY    53  50  89 CALM      30.03S
PITTSBURGH     CLEAR     53  49  86 S7        30.03S
INDIANA*       CLOUDY    50  50 100 CALM      30.09R
LATROBE        CLEAR     52  52 100 CALM      30.06R
WASHINGTON CO* CLEAR     46  45  93 CALM      30.05S
$$

PAZ004>006-010>012-017>019-024>028-033>037-041-042-045-046-049>053-301000-
CENTRAL PENNSYLVANIA

CITY           SKY/WX    TMP DP  RH WIND       PRES   REMARKS
BRADFORD       CLOUDY    53  49  86 CALM      30.02S
DUBOIS         PTCLDY    49  46  90 CALM      30.03S
CLEARFIELD     FOG       50  50 100 CALM      30.05R VSB 1/4
JOHNSTOWN      CLEAR     49  47  93 SW6       30.06R
ALTOONA        CLEAR     50  50 100 SW5       30.06R
STATE COLLEGE  CLEAR     52  51  97 CALM      30.03S
WILLIAMSPORT   CLOUDY    55  52  89 N3        30.01R
SELINSGROVE    CLEAR     51  50  96 CALM      30.02S FOG
FT INDIANTOWN  CLEAR     51  51 100 CALM      30.02S FOG
CAPITAL CITY   CLEAR     52  50  93 W3        30.02S
HARRISBURG     CLEAR     57  52  83 CALM      30.01S
YORK           CLEAR     50  48  93 CALM      30.02S
$$

PAZ038>040-043-044-047-048-054-055-060>062-067>071-301000-
EASTERN PENNSYLVANIA

CITY           SKY/WX    TMP DP  RH WIND       PRES   REMARKS
SCRANTON       CLOUDY    54  50  86 CALM      30.01S
MOUNT POCONO   CLEAR     46  44  93 NW5       30.02F
ALLENTOWN      CLEAR     53  50  89 W3        30.01S
QUAKERTOWN*    SUNNY     50  50 100 CALM      30.02R
READING        CLEAR     55  52  89 CALM      30.01R
LANCASTER      CLEAR     54  52  93 W5        30.02R
COATESVILLE    SUNNY     54  54 100 NW7       30.02S
POTTSTOWN      CLEAR     54  51  90 CALM      30.02R
BLUE BELL      CLEAR     55  54  94 CALM      30.00R
DOYLESTOWN     PTCLDY    57  53  86 CALM      30.00R
WILLOW GROVE   NOT AVBL
NORTH PHILA    MOCLDY    63  52  67 NW7       30.01R
PHILADELPHIA   PTCLDY    63  52  67 N7        30.00R
$$



USA.gov is the U.S. government's official web portal to all federal, state and local government web resources and services.